When you browse on this site, cookies collect data to enhance your experience and personalize the content and advertising you see.
Visit our Privacy Policy to learn more. By continuing to use the site, you agree to this use of cookies and data.
  • En España
  • Lista de países
  • Para 7 días
  • Temperatura del agua
  • El tiempo en el mapa
  • Informadores
  • user-avatar
    Iniciar sesión

    Tiempo cada hora Tonton

    Hoy, 6 Diciembre, Viernes

    Tiempo Temperatura Precipitaciones Viento Presión Humedad
    00:00 +10°C° 0 mm 7 mps 757 mmHg 88%
    01:00 +10°C° 0.1 mm 7 mps 756 mmHg 89%
    02:00 +10°C° 0.1 mm 8 mps 755 mmHg 90%
    03:00 +10°C° 0.1 mm 8 mps 755 mmHg 91%
    04:00 +11°C° 0.5 mm 8 mps 754 mmHg 92%
    05:00 +11°C° 0.5 mm 8 mps 754 mmHg 92%
    06:00 +11°C° 0 mm 8 mps 754 mmHg 92%
    07:00 +11°C° 0.1 mm 8 mps 753 mmHg 92%
    08:00 +11°C° 0.1 mm 7 mps 753 mmHg 92%
    09:00 +11°C° 0.1 mm 7 mps 753 mmHg 92%
    10:00 +11°C° 0.1 mm 8 mps 752 mmHg 89%
    11:00 +11°C° 0.1 mm 8 mps 752 mmHg 87%
    12:00 +11°C° 0 mm 8 mps 752 mmHg 82%
    13:00 +11°C° 0.3 mm 8 mps 752 mmHg 83%
    14:00 +10°C° 0.3 mm 9 mps 751 mmHg 84%
    15:00 +10°C° 0.3 mm 9 mps 751 mmHg 85%
    16:00 +9°C° 0 mm 8 mps 752 mmHg 86%
    17:00 +8°C° 0 mm 7 mps 753 mmHg 87%
    18:00 +7°C° 0 mm 6 mps 754 mmHg 88%
    19:00 +7°C° 0 mm 6 mps 754 mmHg 89%
    20:00 +7°C° 0 mm 5 mps 755 mmHg 90%
    21:00 +7°C° 0 mm 5 mps 755 mmHg 91%
    22:00 +7°C° 0 mm 5 mps 756 mmHg 92%
    23:00 +6°C° 0 mm 5 mps 756 mmHg 92%

    Mañana, 7 Diciembre, Sábado

    Tiempo Temperatura Precipitaciones Viento Presión Humedad
    00:00 +6°C° 0 mm 4 mps 757 mmHg 92%
    01:00 +6°C° 0 mm 5 mps 757 mmHg 93%
    02:00 +6°C° 0 mm 5 mps 757 mmHg 93%
    03:00 +6°C° 0 mm 5 mps 758 mmHg 93%
    04:00 +6°C° 0 mm 4 mps 758 mmHg 93%
    05:00 +6°C° 0 mm 4 mps 758 mmHg 93%
    06:00 +5°C° 0 mm 4 mps 759 mmHg 94%
    07:00 +5°C° 0 mm 3 mps 759 mmHg 93%
    08:00 +5°C° 0 mm 3 mps 759 mmHg 93%
    09:00 +7°C° 0 mm 3 mps 759 mmHg 93%
    10:00 +8°C° 0 mm 3 mps 759 mmHg 90%
    11:00 +8°C° 0 mm 4 mps 759 mmHg 87%
    12:00 +9°C° 0 mm 5 mps 759 mmHg 84%
    13:00 +10°C° 0 mm 4 mps 759 mmHg 85%
    14:00 +10°C° 0 mm 4 mps 758 mmHg 86%
    15:00 +10°C° 0 mm 4 mps 758 mmHg 88%
    16:00 +8°C° 0 mm 4 mps 758 mmHg 90%
    17:00 +8°C° 0 mm 4 mps 757 mmHg 92%
    18:00 +7°C° 0 mm 5 mps 757 mmHg 94%
    19:00 +8°C° 0 mm 6 mps 756 mmHg 93%
    20:00 +8°C° 0 mm 7 mps 756 mmHg 93%
    21:00 +9°C° 0 mm 8 mps 755 mmHg 93%
    22:00 +8°C° 0.1 mm 9 mps 754 mmHg 92%
    23:00 +9°C° 0.1 mm 10 mps 752 mmHg 92%

    Pasado mañana, 8 Diciembre, Domingo

    Tiempo Temperatura Precipitaciones Viento Presión Humedad
    00:00 +9°C° 0.1 mm 10 mps 751 mmHg 91%
    01:00 +11°C° 0.6 mm 10 mps 751 mmHg 91%
    02:00 +11°C° 0.6 mm 10 mps 750 mmHg 92%
    03:00 +12°C° 0.6 mm 10 mps 749 mmHg 93%
    04:00 +11°C° 0 mm 9 mps 749 mmHg 90%
    05:00 +9°C° 0 mm 8 mps 749 mmHg 87%
    06:00 +7°C° 0 mm 8 mps 750 mmHg 85%
    07:00 +6°C° 0 mm 8 mps 750 mmHg 85%
    08:00 +6°C° 0 mm 8 mps 750 mmHg 85%
    09:00 +6°C° 0 mm 8 mps 751 mmHg 84%
    10:00 +6°C° 0.2 mm 9 mps 750 mmHg 84%
    11:00 +6°C° 0.2 mm 10 mps 750 mmHg 83%
    12:00 +6°C° 0.2 mm 11 mps 750 mmHg 82%
    13:00 +6°C° 0.3 mm 10 mps 749 mmHg 80%
    14:00 +6°C° 0.3 mm 10 mps 749 mmHg 78%
    15:00 +6°C° 0.3 mm 10 mps 748 mmHg 76%
    16:00 +5°C° 0.1 mm 10 mps 748 mmHg 78%
    17:00 +5°C° 0.1 mm 10 mps 747 mmHg 80%
    18:00 +3°C° 0.1 mm 10 mps 747 mmHg 82%
    19:00 +3°C° 0.3 mm 11 mps 746 mmHg 83%
    20:00 +4°C° 0.3 mm 12 mps 745 mmHg 84%
    21:00 +4°C° 0.3 mm 13 mps 744 mmHg 85%
    22:00 +4°C° 0.5 mm 13 mps 743 mmHg 85%
    23:00 +4°C° 0.5 mm 12 mps 743 mmHg 85%

    9 Diciembre, Lunes

    Tiempo Temperatura Precipitaciones Viento Presión Humedad
    00:00 +4°C° 0.5 mm 11 mps 742 mmHg 85%
    01:00 +4°C° 0.2 mm 11 mps 743 mmHg 84%
    02:00 +4°C° 0.2 mm 11 mps 744 mmHg 82%
    03:00 +4°C° 0.2 mm 11 mps 744 mmHg 80%
    04:00 +4°C° 0.1 mm 12 mps 745 mmHg 80%
    05:00 +5°C° 0.1 mm 13 mps 745 mmHg 80%
    06:00 +5°C° 0.1 mm 15 mps 746 mmHg 79%
    07:00 +5°C° 0.1 mm 14 mps 747 mmHg 77%
    08:00 +5°C° 0.1 mm 13 mps 749 mmHg 75%
    09:00 +7°C° 0.1 mm 12 mps 751 mmHg 73%
    10:00 +7°C° 0.1 mm 12 mps 752 mmHg 72%
    11:00 +7°C° 0.1 mm 12 mps 754 mmHg 71%
    12:00 +7°C° 0.1 mm 11 mps 756 mmHg 69%
    13:00 +7°C° 0 mm 11 mps 757 mmHg 70%
    14:00 +6°C° 0 mm 10 mps 758 mmHg 70%
    15:00 +6°C° 0 mm 9 mps 759 mmHg 70%
    16:00 +5°C° 0 mm 8 mps 761 mmHg 71%
    17:00 +5°C° 0 mm 7 mps 762 mmHg 72%
    18:00 +4°C° 0 mm 7 mps 763 mmHg 73%
    19:00 +3°C° 0 mm 5 mps 764 mmHg 75%
    20:00 +4°C° 0 mm 4 mps 765 mmHg 77%
    21:00 +3°C° 0 mm 3 mps 765 mmHg 79%
    22:00 +3°C° 0 mm 2 mps 766 mmHg 80%
    23:00 +4°C° 0 mm 1 mps 766 mmHg 81%

    10 Diciembre, Martes

    Tiempo Temperatura Precipitaciones Viento Presión Humedad
    00:00 +4°C° 0 mm 1 mps 766 mmHg 82%
    01:00 +4°C° 0 mm 1 mps 766 mmHg 82%
    02:00 +3°C° 0 mm 2 mps 766 mmHg 81%
    03:00 +3°C° 0 mm 2 mps 766 mmHg 81%
    04:00 +3°C° 0 mm 3 mps 765 mmHg 81%
    05:00 +3°C° 0 mm 3 mps 765 mmHg 80%
    06:00 +4°C° 0 mm 4 mps 764 mmHg 80%
    07:00 +5°C° 0 mm 5 mps 764 mmHg 81%
    08:00 +5°C° 0 mm 6 mps 763 mmHg 83%
    09:00 +6°C° 0 mm 7 mps 762 mmHg 84%
    10:00 +6°C° 0.2 mm 8 mps 761 mmHg 85%
    11:00 +7°C° 0.2 mm 10 mps 760 mmHg 87%
    12:00 +7°C° 0.2 mm 11 mps 759 mmHg 88%
    13:00 +7°C° 0.7 mm 11 mps 758 mmHg 90%
    14:00 +8°C° 0.7 mm 11 mps 757 mmHg 91%
    15:00 +8°C° 0.7 mm 12 mps 755 mmHg 93%
    16:00 +8°C° 0.3 mm 12 mps 754 mmHg 92%
    17:00 +9°C° 0.3 mm 12 mps 753 mmHg 92%
    18:00 +9°C° 0.3 mm 12 mps 751 mmHg 92%
    19:00 +9°C° 1.6 mm 12 mps 751 mmHg 91%
    20:00 +9°C° 1.6 mm 12 mps 750 mmHg 91%
    21:00 +9°C° 1.6 mm 12 mps 750 mmHg 91%
    22:00 +8°C° 0.7 mm 10 mps 751 mmHg 89%
    23:00 +6°C° 0.7 mm 9 mps 752 mmHg 86%

    11 Diciembre, Miércoles

    Tiempo Temperatura Precipitaciones Viento Presión Humedad
    00:00 +5°C° 0.7 mm 7 mps 752 mmHg 84%
    01:00 +4°C° 0 mm 6 mps 753 mmHg 84%
    02:00 +3°C° 0 mm 6 mps 754 mmHg 85%
    03:00 +3°C° 0 mm 5 mps 755 mmHg 85%
    04:00 +2°C° 0 mm 5 mps 755 mmHg 85%
    05:00 +2°C° 0 mm 5 mps 755 mmHg 85%
    06:00 +2°C° 0 mm 5 mps 755 mmHg 86%
    07:00 +2°C° 0.1 mm 5 mps 755 mmHg 86%
    08:00 +3°C° 0.1 mm 5 mps 755 mmHg 86%
    09:00 +3°C° 0.1 mm 5 mps 755 mmHg 87%
    10:00 +5°C° 0 mm 5 mps 755 mmHg 84%
    11:00 +6°C° 0 mm 5 mps 754 mmHg 81%
    12:00 +7°C° 0 mm 5 mps 754 mmHg 78%
    13:00 +6°C° 0.6 mm 5 mps 754 mmHg 82%
    14:00 +5°C° 0.6 mm 5 mps 753 mmHg 86%
    15:00 +5°C° 0.6 mm 5 mps 753 mmHg 90%
    16:00 +3°C° 0.2 mm 5 mps 753 mmHg 88%
    17:00 +3°C° 0.2 mm 5 mps 753 mmHg 86%
    18:00 +2°C° 0.2 mm 6 mps 754 mmHg 84%
    19:00 +2°C° 0.1 mm 6 mps 754 mmHg 84%
    20:00 +2°C° 0.1 mm 5 mps 755 mmHg 85%
    21:00 +2°C° 0.1 mm 5 mps 755 mmHg 85%
    22:00 +2°C° 0 mm 5 mps 755 mmHg 86%
    23:00 +2°C° 0 mm 5 mps 755 mmHg 87%
    Mostrar más